FW9692 Weather Reports


Display with metric or nautical units.
time (UTC)temp
F
wind
direction
speed
MPH
gust
MPH
rain 1hr
in
rain 24hr
in
rain mn
in
humidity
%
barometer
mb
20260504024531 73 133 18.0 23.0 0.00 0.00 0.00 41 1002.4
20260504023032 74 135 16.0 22.0 0.00 0.00 0.00 41 1002.4
20260504021528 74 128 15.0 21.0 0.00 0.00 0.00 41 1002.5
20260504020025 75 134 17.0 22.0 0.00 0.00 0.00 40 1002.5
20260504014522 75 129 13.0 17.0 0.00 0.00 0.00 38 1002.6
20260504013022 76 134 12.0 16.0 0.00 0.00 0.00 38 1002.6
20260504011519 76 121 11.0 16.0 0.00 0.00 0.00 37 1002.7
20260504010017 77 134 10.0 16.0 0.00 0.00 0.00 37 1002.8
20260504004521 77 137 13.0 18.0 0.00 0.00 0.00 36 1002.8
20260504003014 77 135 12.0 15.0 0.00 0.00 0.00 36 1003.0
20260504001516 77 139 9.0 13.0 0.00 0.00 0.00 36 1003.2
20260504000014 77 124 11.0 14.0 0.00 0.00 0.00 36 1003.2
20260503234525 77 147 4.0 9.0 0.00 0.00 0.00 35 1003.5
20260503233012 77 135 5.0 9.0 0.00 0.00 0.00 35 1003.6
20260503231507 77 215 3.0 6.0 0.00 0.00 0.00 35 1003.9
20260503230004 77 230 7.0 11.0 0.00 0.00 0.00 35 1004.1
20260503224500 77 30 3.0 5.0 0.00 0.00 0.00 36 1004.3
20260503223059 77 139 9.0 13.0 0.00 0.00 0.00 35 1004.7
20260503221503 76 186 5.0 14.0 0.00 0.00 0.00 36 1004.9
20260503220005 77 182 8.0 10.0 0.00 0.00 0.00 35 1005.1
20260503214558 76 155 4.0 11.0 0.00 0.00 0.00 36 1005.4
20260503213107 75 131 4.0 11.0 0.00 0.00 0.00 36 1005.9
20260503211547 75 140 8.0 12.0 0.00 0.00 0.00 37 1006.2
20260503210046 75 232 3.0 8.0 0.00 0.00 0.00 37 1006.5
20260503204540 74 173 5.0 14.0 0.00 0.00 0.00 38 1006.8
20260503203037 73 189 5.0 11.0 0.00 0.00 0.00 38 1007.1
20260503201541 73 126 8.0 14.0 0.00 0.00 0.00 38 1007.3
20260503200042 72 223 8.0 12.0 0.00 0.00 0.00 40 1007.7
20260503194533 72 194 8.0 16.0 0.00 0.00 0.00 40 1008.1
20260503193034 71 161 8.0 11.0 0.00 0.00 0.00 42 1008.3
20260503191526 70 178 10.0 18.0 0.00 0.00 0.00 44 1008.6
20260503190027 70 137 7.0 15.0 0.00 0.00 0.00 45 1008.7
20260503184520 70 133 9.0 16.0 0.00 0.00 0.00 46 1009.4
20260503183021 69 165 9.0 16.0 0.00 0.00 0.00 46 1009.7
20260503181521 69 111 5.0 12.0 0.00 0.00 0.00 48 1009.8
20260503180020 68 137 5.0 16.0 0.00 0.00 0.00 49 1010.2
20260503174515 67 137 9.0 13.0 0.00 0.00 0.00 51 1010.2
20260503173014 67 187 4.0 11.0 0.00 0.00 0.00 54 1010.7
20260503171504 66 111 5.0 12.0 0.00 0.00 0.00 54 1011.2
20260503054512 60 149 14.0 18.0 0.00 0.00 0.00 60 1012.5
20260503053004 60 144 12.0 15.0 0.00 0.00 0.00 59 1012.5
20260503050022 61 134 7.0 9.0 0.00 0.00 0.00 60 1013.0
20260503044504 61 115 7.0 9.0 0.00 0.00 0.00 57 1013.0
20260503043107 61 130 7.0 10.0 0.00 0.00 0.00 58 1013.0
20260503040054 62 131 9.0 11.0 0.00 0.00 0.00 57 1012.7
20260503034554 62 131 8.0 10.0 0.00 0.00 0.00 56 1012.7
20260503033112 62 131 7.0 9.0 0.00 0.00 0.00 55 1012.6